Time,TemperatureF,DewpointF,PressureIn,WindDirection,WindDirectionDegrees,WindSpeedMPH,WindSpeedGustMPH,Humidity,HourlyPrecipIn,Conditions,Clouds,dailyrainin,SoftwareType,DateUTC
2013-11-09 00:01:00,77.0,72.8,29.96,NE,53,2.0,12.0,87,0.01,,---,0.26,VWS V14.01,2013-11-09 05:01:00,
2013-11-09 00:02:00,77.0,72.8,29.96,ENE,76,6.0,12.0,87,0.01,,---,0.26,VWS V14.01,2013-11-09 05:02:00,
2013-11-09 00:03:00,77.0,72.8,29.96,NE,53,3.0,12.0,87,0.01,,---,0.26,VWS V14.01,2013-11-09 05:03:00,
2013-11-09 00:08:00,77.2,73.0,29.96,ENE,62,2.0,13.0,87,0.01,,---,0.00,VWS V14.01,2013-11-09 05:08:00,
2013-11-09 00:13:00,77.2,73.4,29.96,ENE,75,11.0,13.0,88,0.01,,---,0.00,VWS V14.01,2013-11-09 05:13:00,
2013-11-09 00:14:00,77.2,73.4,29.96,NE,56,5.0,13.0,88,0.01,,---,0.00,VWS V14.01,2013-11-09 05:14:00,
2013-11-09 00:19:00,77.0,73.2,29.95,ENE,59,6.0,13.0,88,0.01,,---,0.00,VWS V14.01,2013-11-09 05:19:00,
2013-11-09 00:24:00,77.0,73.2,29.95,ENE,61,2.0,13.0,88,0.01,,---,0.00,VWS V14.01,2013-11-09 05:24:00,
2013-11-09 00:29:00,77.0,73.2,29.95,NE,38,5.0,13.0,88,0.01,,---,0.00,VWS V14.01,2013-11-09 05:29:00,
2013-11-09 00:34:00,77.2,73.4,29.95,NE,45,5.0,13.0,88,0.01,,---,0.00,VWS V14.01,2013-11-09 05:34:00,
2013-11-09 00:39:00,77.2,73.4,29.95,NE,55,6.0,6.0,88,0.00,,---,0.00,VWS V14.01,2013-11-09 05:39:00,
2013-11-09 00:44:00,77.2,73.7,29.95,ENE,59,8.0,9.0,89,0.00,,---,0.00,VWS V14.01,2013-11-09 05:44:00,
2013-11-09 00:49:00,77.0,73.8,29.96,NE,45,5.0,15.0,90,0.00,,---,0.00,VWS V14.01,2013-11-09 05:49:00,
2013-11-09 00:55:00,76.8,74.0,29.96,ENE,61,9.0,15.0,91,0.00,,---,0.00,VWS V14.01,2013-11-09 05:55:00,
2013-11-09 01:00:00,76.5,73.7,29.96,NE,53,4.0,15.0,91,0.00,,---,0.00,VWS V14.01,2013-11-09 06:00:00,
2013-11-09 01:05:00,76.3,73.8,29.95,NE,55,4.0,15.0,92,0.00,,---,0.00,VWS V14.01,2013-11-09 06:05:00,
2013-11-09 01:10:00,76.3,74.1,29.95,ENE,61,4.0,10.0,93,0.00,,---,0.00,VWS V14.01,2013-11-09 06:10:00,
2013-11-09 01:15:00,76.3,74.1,29.95,East,90,11.0,14.0,93,0.00,,---,0.00,VWS V14.01,2013-11-09 06:15:00,
2013-11-09 01:20:00,76.1,73.9,29.96,ENE,70,10.0,14.0,93,0.01,,---,0.01,VWS V14.01,2013-11-09 06:20:00,
2013-11-09 01:25:00,76.0,74.2,29.96,ENE,73,5.0,14.0,94,0.01,,---,0.01,VWS V14.01,2013-11-09 06:25:00,
2013-11-09 01:30:00,75.6,74.4,29.96,SE,128,10.0,15.0,96,0.01,,---,0.01,VWS V14.01,2013-11-09 06:30:00,
2013-11-09 01:35:00,75.4,74.5,29.95,East,80,6.0,6.0,97,0.01,,---,0.01,VWS V14.01,2013-11-09 06:35:00,
2013-11-09 01:40:00,75.3,74.4,29.95,NE,53,3.0,7.0,97,0.02,,---,0.02,VWS V14.01,2013-11-09 06:40:00,
2013-11-09 01:46:00,75.1,74.5,29.95,ENE,69,4.0,7.0,98,0.02,,---,0.02,VWS V14.01,2013-11-09 06:46:00,
2013-11-09 01:51:00,75.1,74.5,29.95,NE,51,4.0,8.0,98,0.02,,---,0.02,VWS V14.01,2013-11-09 06:51:00,
2013-11-09 01:56:00,74.9,74.6,29.95,ENE,58,4.0,14.0,99,0.02,,---,0.02,VWS V14.01,2013-11-09 06:56:00,
2013-11-09 02:01:00,74.7,74.4,29.95,East,82,6.0,15.0,99,0.02,,---,0.02,VWS V14.01,2013-11-09 07:01:00,
2013-11-09 02:06:00,74.6,74.3,29.95,East,81,9.0,9.0,99,0.02,,---,0.02,VWS V14.01,2013-11-09 07:06:00,
2013-11-09 02:11:00,74.4,74.1,29.95,NE,41,5.0,11.0,99,0.02,,---,0.02,VWS V14.01,2013-11-09 07:11:00,
2013-11-09 02:16:00,74.4,74.1,29.95,East,80,9.0,12.0,99,0.02,,---,0.02,VWS V14.01,2013-11-09 07:16:00,
2013-11-09 02:21:00,74.4,74.4,29.94,East,79,3.0,12.0,100,0.02,,---,0.02,VWS V14.01,2013-11-09 07:21:00,
2013-11-09 02:26:00,74.4,74.4,29.94,NE,54,3.0,12.0,100,0.02,,---,0.02,VWS V14.01,2013-11-09 07:26:00,
2013-11-09 02:31:00,74.6,74.6,29.94,ENE,57,6.0,12.0,100,0.02,,---,0.02,VWS V14.01,2013-11-09 07:31:00,
2013-11-09 02:37:00,74.6,74.6,29.94,NE,52,5.0,8.0,100,0.01,,---,0.02,VWS V14.01,2013-11-09 07:37:00,
2013-11-09 02:42:00,74.6,74.6,29.94,NE,53,4.0,8.0,100,0.01,,---,0.02,VWS V14.01,2013-11-09 07:42:00,
2013-11-09 02:47:00,74.6,74.6,29.94,NE,51,2.0,8.0,100,0.01,,---,0.02,VWS V14.01,2013-11-09 07:47:00,
2013-11-09 02:52:00,74.7,74.7,29.94,NE,49,4.0,8.0,100,0.01,,---,0.02,VWS V14.01,2013-11-09 07:52:00,
2013-11-09 02:57:00,74.7,74.7,29.94,ENE,61,2.0,8.0,100,0.01,,---,0.02,VWS V14.01,2013-11-09 07:57:00,
2013-11-09 03:02:00,74.7,74.7,29.94,ENE,78,3.0,8.0,100,0.01,,---,0.02,VWS V14.01,2013-11-09 08:02:00,
2013-11-09 03:07:00,74.6,74.6,29.95,ENE,68,7.0,7.0,100,0.01,,---,0.03,VWS V14.01,2013-11-09 08:07:00,
2013-11-09 03:12:00,74.4,74.4,29.95,ENE,66,6.0,12.0,100,0.01,,---,0.03,VWS V14.01,2013-11-09 08:12:00,
2013-11-09 03:17:00,74.0,74.0,29.95,NE,53,5.0,12.0,100,0.01,,---,0.03,VWS V14.01,2013-11-09 08:17:00,
2013-11-09 03:22:00,74.0,74.0,29.95,ENE,60,10.0,12.0,100,0.02,,---,0.04,VWS V14.01,2013-11-09 08:22:00,
2013-11-09 03:27:00,74.0,74.0,29.95,NE,49,5.0,12.0,100,0.03,,---,0.05,VWS V14.01,2013-11-09 08:27:00,
2013-11-09 03:32:00,74.0,74.0,29.95,NE,55,5.0,12.0,100,0.03,,---,0.05,VWS V14.01,2013-11-09 08:32:00,
2013-11-09 03:37:00,74.0,74.0,29.95,ENE,71,7.0,9.0,100,0.03,,---,0.05,VWS V14.01,2013-11-09 08:37:00,
2013-11-09 03:42:00,73.9,73.9,29.95,NE,37,3.0,11.0,100,0.03,,---,0.05,VWS V14.01,2013-11-09 08:42:00,
2013-11-09 03:47:00,73.9,73.9,29.95,NE,54,6.0,11.0,100,0.03,,---,0.05,VWS V14.01,2013-11-09 08:47:00,
2013-11-09 03:53:00,73.9,73.9,29.95,NNE,30,4.0,11.0,100,0.03,,---,0.05,VWS V14.01,2013-11-09 08:53:00,
2013-11-09 03:58:00,73.9,73.9,29.95,NE,49,2.0,11.0,100,0.03,,---,0.05,VWS V14.01,2013-11-09 08:58:00,
2013-11-09 04:03:00,73.9,73.9,29.95,NE,50,2.0,11.0,100,0.03,,---,0.05,VWS V14.01,2013-11-09 09:03:00,
2013-11-09 04:08:00,73.9,73.9,29.94,NE,46,4.0,6.0,100,0.02,,---,0.05,VWS V14.01,2013-11-09 09:08:00,
2013-11-09 04:13:00,73.9,73.9,29.94,NE,41,2.0,6.0,100,0.02,,---,0.05,VWS V14.01,2013-11-09 09:13:00,
2013-11-09 04:18:00,74.0,74.0,29.94,NE,53,3.0,6.0,100,0.02,,---,0.05,VWS V14.01,2013-11-09 09:18:00,
2013-11-09 04:23:00,74.0,74.0,29.95,ENE,74,3.0,9.0,100,0.02,,---,0.05,VWS V14.01,2013-11-09 09:23:00,
2013-11-09 04:28:00,73.9,73.9,29.95,ENE,59,5.0,12.0,100,0.02,,---,0.05,VWS V14.01,2013-11-09 09:28:00,
2013-11-09 04:33:00,73.9,73.9,29.95,NE,53,4.0,12.0,100,0.02,,---,0.05,VWS V14.01,2013-11-09 09:33:00,
2013-11-09 04:38:00,73.7,73.7,29.96,ENE,61,3.0,5.0,100,0.00,,---,0.05,VWS V14.01,2013-11-09 09:38:00,
2013-11-09 04:43:00,73.5,73.5,29.96,NE,46,4.0,9.0,100,0.00,,---,0.05,VWS V14.01,2013-11-09 09:43:00,
2013-11-09 04:48:00,73.5,73.5,29.96,NE,36,2.0,11.0,100,0.00,,---,0.05,VWS V14.01,2013-11-09 09:48:00,
2013-11-09 04:53:00,73.5,73.5,29.96,NE,40,4.0,11.0,100,0.00,,---,0.05,VWS V14.01,2013-11-09 09:53:00,
2013-11-09 04:58:00,73.5,73.5,29.96,East,86,9.0,11.0,100,0.00,,---,0.05,VWS V14.01,2013-11-09 09:58:00,
2013-11-09 05:03:00,73.7,73.7,29.96,NE,54,6.0,11.0,100,0.00,,---,0.05,VWS V14.01,2013-11-09 10:03:00,
2013-11-09 05:08:00,73.9,73.9,29.96,NE,51,4.0,6.0,100,0.00,,---,0.05,VWS V14.01,2013-11-09 10:08:00,
2013-11-09 05:13:00,73.9,73.9,29.96,ENE,71,4.0,9.0,100,0.00,,---,0.05,VWS V14.01,2013-11-09 10:13:00,
2013-11-09 05:19:00,73.9,73.9,29.96,ENE,65,7.0,11.0,100,0.00,,---,0.05,VWS V14.01,2013-11-09 10:19:00,
2013-11-09 05:24:00,73.9,73.9,29.96,ENE,67,4.0,11.0,100,0.00,,---,0.05,VWS V14.01,2013-11-09 10:24:00,
2013-11-09 05:29:00,73.9,73.9,29.96,NE,55,4.0,11.0,100,0.00,,---,0.05,VWS V14.01,2013-11-09 10:29:00,
2013-11-09 05:34:00,74.0,74.0,29.97,NE,49,2.0,11.0,100,0.00,,---,0.05,VWS V14.01,2013-11-09 10:34:00,
2013-11-09 05:39:00,74.2,74.2,29.97,ENE,60,3.0,6.0,100,0.00,,---,0.05,VWS V14.01,2013-11-09 10:39:00,
2013-11-09 05:44:00,74.2,74.2,29.97,NE,53,5.0,6.0,100,0.00,,---,0.05,VWS V14.01,2013-11-09 10:44:00,
2013-11-09 05:49:00,74.4,74.4,29.97,NE,46,4.0,6.0,100,0.00,,---,0.05,VWS V14.01,2013-11-09 10:49:00,
2013-11-09 05:54:00,74.6,74.6,29.97,NE,42,6.0,7.0,100,0.00,,---,0.05,VWS V14.01,2013-11-09 10:54:00,
2013-11-09 05:59:00,74.7,74.7,29.97,NE,42,2.0,8.0,100,0.00,,---,0.05,VWS V14.01,2013-11-09 10:59:00,
2013-11-09 06:04:00,74.9,74.9,29.98,ENE,69,5.0,8.0,100,0.00,,---,0.05,VWS V14.01,2013-11-09 11:04:00,
2013-11-09 06:09:00,75.1,75.1,29.98,NE,50,10.0,10.0,100,0.00,,---,0.05,VWS V14.01,2013-11-09 11:09:00,
2013-11-09 06:14:00,75.1,75.1,29.98,NE,55,5.0,10.0,100,0.00,,---,0.05,VWS V14.01,2013-11-09 11:14:00,
2013-11-09 06:19:00,74.9,74.9,29.98,ENE,69,4.0,10.0,100,0.00,,---,0.05,VWS V14.01,2013-11-09 11:19:00,
2013-11-09 06:24:00,74.9,74.9,29.98,NE,53,11.0,18.0,100,0.00,,---,0.05,VWS V14.01,2013-11-09 11:24:00,
2013-11-09 06:29:00,75.1,75.1,29.98,ENE,77,11.0,18.0,100,0.00,,---,0.05,VWS V14.01,2013-11-09 11:29:00,
2013-11-09 06:34:00,75.1,75.1,29.99,ENE,61,4.0,18.0,100,0.00,,---,0.05,VWS V14.01,2013-11-09 11:34:00,
2013-11-09 06:39:00,75.1,74.8,29.99,ENE,77,7.0,10.0,99,0.00,,---,0.05,VWS V14.01,2013-11-09 11:39:00,
2013-11-09 06:44:00,75.1,74.8,29.99,ENE,59,5.0,11.0,99,0.00,,---,0.05,VWS V14.01,2013-11-09 11:44:00,
2013-11-09 06:49:00,75.1,74.8,29.99,ENE,57,9.0,11.0,99,0.00,,---,0.05,VWS V14.01,2013-11-09 11:49:00,
2013-11-09 06:55:00,75.1,74.8,29.99,NE,53,5.0,11.0,99,0.00,,---,0.05,VWS V14.01,2013-11-09 11:55:00,
2013-11-09 07:00:00,75.1,74.8,29.99,NE,41,3.0,11.0,99,0.00,,---,0.05,VWS V14.01,2013-11-09 12:00:00,
2013-11-09 07:05:00,75.1,74.8,29.99,NE,53,7.0,11.0,99,0.00,,---,0.05,VWS V14.01,2013-11-09 12:05:00,
2013-11-09 07:10:00,75.1,74.5,29.99,ENE,57,5.0,7.0,98,0.00,,---,0.05,VWS V14.01,2013-11-09 12:10:00,
2013-11-09 07:15:00,75.1,74.5,29.99,ENE,63,2.0,9.0,98,0.00,,---,0.05,VWS V14.01,2013-11-09 12:15:00,
2013-11-09 07:20:00,75.3,74.7,30.00,ENE,65,11.0,11.0,98,0.00,,---,0.05,VWS V14.01,2013-11-09 12:20:00,
2013-11-09 07:25:00,75.4,74.8,30.00,NE,49,11.0,19.0,98,0.01,,---,0.06,VWS V14.01,2013-11-09 12:25:00,
2013-11-09 07:30:00,75.6,75.0,30.00,NNE,26,2.0,19.0,98,0.01,,---,0.06,VWS V14.01,2013-11-09 12:30:00,
2013-11-09 07:35:00,75.6,75.0,30.00,NE,40,5.0,19.0,98,0.01,,---,0.06,VWS V14.01,2013-11-09 12:35:00,
2013-11-09 07:40:00,75.6,75.0,30.00,ENE,61,6.0,9.0,98,0.01,,---,0.06,VWS V14.01,2013-11-09 12:40:00,
2013-11-09 07:45:00,75.6,74.7,30.00,ENE,76,7.0,10.0,97,0.01,,---,0.06,VWS V14.01,2013-11-09 12:45:00,
2013-11-09 07:50:00,75.4,74.5,30.01,ENE,71,5.0,14.0,97,0.01,,---,0.06,VWS V14.01,2013-11-09 12:50:00,
2013-11-09 07:55:00,75.4,74.5,30.01,ENE,73,5.0,14.0,97,0.01,,---,0.06,VWS V14.01,2013-11-09 12:55:00,
2013-11-09 08:00:00,75.3,74.7,30.01,ENE,77,4.0,14.0,98,0.02,,---,0.07,VWS V14.01,2013-11-09 13:00:00,
2013-11-09 08:05:00,75.4,74.8,30.02,ENE,57,7.0,7.0,98,0.02,,---,0.07,VWS V14.01,2013-11-09 13:05:00,
2013-11-09 08:10:00,75.4,75.1,30.02,ENE,57,5.0,9.0,99,0.02,,---,0.07,VWS V14.01,2013-11-09 13:10:00,
2013-11-09 08:15:00,75.6,75.3,30.02,ENE,64,3.0,10.0,99,0.02,,---,0.07,VWS V14.01,2013-11-09 13:15:00,
2013-11-09 08:20:00,75.6,75.3,30.02,ENE,69,3.0,10.0,99,0.02,,---,0.07,VWS V14.01,2013-11-09 13:20:00,
2013-11-09 08:26:00,75.4,75.1,30.02,ENE,69,3.0,10.0,99,0.02,,---,0.07,VWS V14.01,2013-11-09 13:26:00,
2013-11-09 08:31:00,75.6,75.6,30.02,ENE,76,5.0,11.0,100,0.02,,---,0.07,VWS V14.01,2013-11-09 13:31:00,
2013-11-09 08:36:00,75.8,75.5,30.02,ENE,60,10.0,10.0,99,0.01,,---,0.07,VWS V14.01,2013-11-09 13:36:00,
2013-11-09 08:41:00,76.0,75.4,30.02,East,82,18.0,18.0,98,0.01,,---,0.07,VWS V14.01,2013-11-09 13:41:00,
2013-11-09 08:46:00,76.1,75.5,30.02,NE,46,4.0,18.0,98,0.01,,---,0.07,VWS V14.01,2013-11-09 13:46:00,
2013-11-09 08:51:00,76.1,75.5,30.03,ENE,58,4.0,18.0,98,0.01,,---,0.07,VWS V14.01,2013-11-09 13:51:00,
2013-11-09 08:56:00,76.1,75.5,30.03,NE,51,6.0,18.0,98,0.01,,---,0.07,VWS V14.01,2013-11-09 13:56:00,
2013-11-09 09:01:00,76.3,75.4,30.03,ENE,77,9.0,18.0,97,0.01,,---,0.07,VWS V14.01,2013-11-09 14:01:00,
2013-11-09 09:06:00,76.5,75.3,30.03,East,89,7.0,10.0,96,0.00,,---,0.07,VWS V14.01,2013-11-09 14:06:00,
2013-11-09 09:11:00,77.0,75.5,30.03,NE,51,5.0,12.0,95,0.00,,---,0.07,VWS V14.01,2013-11-09 14:11:00,
2013-11-09 09:16:00,77.2,75.3,30.03,East,88,11.0,15.0,94,0.00,,---,0.07,VWS V14.01,2013-11-09 14:16:00,
2013-11-09 09:21:00,77.2,74.7,30.04,ENE,78,12.0,16.0,92,0.00,,---,0.07,VWS V14.01,2013-11-09 14:21:00,
2013-11-09 09:26:00,77.2,74.7,30.04,NE,55,6.0,16.0,92,0.00,,---,0.07,VWS V14.01,2013-11-09 14:26:00,
2013-11-09 09:31:00,77.2,74.7,30.04,ENE,59,9.0,16.0,92,0.00,,---,0.07,VWS V14.01,2013-11-09 14:31:00,
2013-11-09 09:36:00,77.2,74.4,30.05,East,82,5.0,9.0,91,0.00,,---,0.07,VWS V14.01,2013-11-09 14:36:00,
2013-11-09 09:41:00,77.4,75.2,30.05,ENE,58,7.0,12.0,93,0.00,,---,0.07,VWS V14.01,2013-11-09 14:41:00,
2013-11-09 09:46:00,77.4,75.2,30.05,ENE,64,4.0,12.0,93,0.00,,---,0.07,VWS V14.01,2013-11-09 14:46:00,
2013-11-09 09:51:00,77.2,75.0,30.05,ENE,59,12.0,13.0,93,0.00,,---,0.07,VWS V14.01,2013-11-09 14:51:00,
2013-11-09 09:56:00,77.0,75.1,30.05,ENE,59,2.0,15.0,94,0.00,,---,0.07,VWS V14.01,2013-11-09 14:56:00,
2013-11-09 10:01:00,77.0,75.5,30.05,ENE,61,4.0,15.0,95,0.00,,---,0.07,VWS V14.01,2013-11-09 15:01:00,
2013-11-09 10:06:00,77.2,75.7,30.04,NE,45,5.0,11.0,95,0.00,,---,0.07,VWS V14.01,2013-11-09 15:06:00,
2013-11-09 10:12:00,77.2,75.3,30.04,NE,46,6.0,13.0,94,0.00,,---,0.07,VWS V14.01,2013-11-09 15:12:00,
2013-11-09 10:17:00,77.2,75.3,30.04,ENE,60,12.0,13.0,94,0.00,,---,0.07,VWS V14.01,2013-11-09 15:17:00,
2013-11-09 10:22:00,77.2,75.3,30.04,NE,53,6.0,13.0,94,0.00,,---,0.07,VWS V14.01,2013-11-09 15:22:00,
2013-11-09 10:27:00,76.8,74.9,30.04,NE,47,2.0,19.0,94,0.00,,---,0.07,VWS V14.01,2013-11-09 15:27:00,
2013-11-09 10:32:00,76.7,74.8,30.04,NE,51,12.0,19.0,94,0.00,,---,0.07,VWS V14.01,2013-11-09 15:32:00,
2013-11-09 10:37:00,76.5,75.0,30.04,NE,53,5.0,6.0,95,0.01,,---,0.08,VWS V14.01,2013-11-09 15:37:00,
2013-11-09 10:42:00,76.3,75.1,30.04,NE,55,3.0,12.0,96,0.01,,---,0.08,VWS V14.01,2013-11-09 15:42:00,
2013-11-09 10:47:00,76.1,74.9,30.04,NE,42,6.0,12.0,96,0.01,,---,0.08,VWS V14.01,2013-11-09 15:47:00,
2013-11-09 10:52:00,76.1,75.2,30.03,NE,50,11.0,12.0,97,0.01,,---,0.08,VWS V14.01,2013-11-09 15:52:00,
2013-11-09 10:57:00,76.3,75.7,30.03,NE,43,4.0,12.0,98,0.01,,---,0.08,VWS V14.01,2013-11-09 15:57:00,
2013-11-09 11:02:00,76.3,75.7,30.03,ENE,59,5.0,12.0,98,0.01,,---,0.08,VWS V14.01,2013-11-09 16:02:00,
2013-11-09 11:07:00,76.5,75.6,30.03,NE,54,5.0,7.0,97,0.01,,---,0.08,VWS V14.01,2013-11-09 16:07:00,
2013-11-09 11:12:00,76.8,75.9,30.03,NE,50,4.0,14.0,97,0.01,,---,0.08,VWS V14.01,2013-11-09 16:12:00,
2013-11-09 11:17:00,77.2,75.7,30.03,ENE,59,4.0,14.0,95,0.01,,---,0.08,VWS V14.01,2013-11-09 16:17:00,
2013-11-09 11:22:00,77.4,74.9,30.03,ENE,58,6.0,19.0,92,0.01,,---,0.08,VWS V14.01,2013-11-09 16:22:00,
2013-11-09 11:27:00,77.6,74.8,30.03,ENE,76,9.0,19.0,91,0.01,,---,0.08,VWS V14.01,2013-11-09 16:27:00,
2013-11-09 11:32:00,77.6,74.4,30.03,ENE,67,9.0,19.0,90,0.01,,---,0.08,VWS V14.01,2013-11-09 16:32:00,
2013-11-09 11:37:00,77.7,74.5,30.03,East,89,11.0,11.0,90,0.00,,---,0.08,VWS V14.01,2013-11-09 16:37:00,
2013-11-09 11:43:00,78.1,74.9,30.03,ENE,74,10.0,11.0,90,0.00,,---,0.08,VWS V14.01,2013-11-09 16:43:00,
2013-11-09 11:48:00,78.3,75.1,30.03,NE,51,6.0,12.0,90,0.00,,---,0.08,VWS V14.01,2013-11-09 16:48:00,
2013-11-09 11:53:00,78.5,75.3,30.02,ENE,59,5.0,12.0,90,0.00,,---,0.08,VWS V14.01,2013-11-09 16:53:00,
2013-11-09 11:58:00,78.6,75.1,30.02,ENE,78,2.0,16.0,89,0.00,,---,0.08,VWS V14.01,2013-11-09 16:58:00,
2013-11-09 12:03:00,79.0,75.2,30.02,NE,53,5.0,16.0,88,0.00,,---,0.08,VWS V14.01,2013-11-09 17:03:00,
2013-11-09 12:08:00,79.6,75.1,30.02,ENE,59,8.0,10.0,86,0.00,,---,0.08,VWS V14.01,2013-11-09 17:08:00,
2013-11-09 12:13:00,80.1,74.5,30.02,ESE,120,11.0,11.0,83,0.00,,---,0.08,VWS V14.01,2013-11-09 17:13:00,
2013-11-09 12:18:00,80.3,73.9,30.02,East,98,12.0,13.0,81,0.00,,---,0.08,VWS V14.01,2013-11-09 17:18:00,
2013-11-09 12:23:00,79.8,74.5,30.02,ENE,60,6.0,16.0,84,0.00,,---,0.08,VWS V14.01,2013-11-09 17:23:00,
2013-11-09 12:28:00,79.6,75.1,30.02,ENE,59,5.0,16.0,86,0.00,,---,0.08,VWS V14.01,2013-11-09 17:28:00,
2013-11-09 12:34:00,79.2,74.7,30.01,East,98,7.0,16.0,86,0.00,,---,0.08,VWS V14.01,2013-11-09 17:34:00,
2013-11-09 12:39:00,78.6,74.8,30.01,NE,51,10.0,12.0,88,0.00,,---,0.08,VWS V14.01,2013-11-09 17:39:00,
2013-11-09 12:45:00,78.5,75.0,30.01,East,80,5.0,12.0,89,0.00,,---,0.08,VWS V14.01,2013-11-09 17:45:00,
2013-11-09 12:50:00,78.3,74.8,30.01,ENE,75,4.0,14.0,89,0.00,,---,0.08,VWS V14.01,2013-11-09 17:50:00,
2013-11-09 12:56:00,78.3,75.1,30.01,ENE,60,7.0,14.0,90,0.00,,---,0.08,VWS V14.01,2013-11-09 17:56:00,
2013-11-09 13:01:00,78.5,75.3,30.01,NE,51,7.0,14.0,90,0.00,,---,0.08,VWS V14.01,2013-11-09 18:01:00,
2013-11-09 13:06:00,78.3,75.1,30.00,East,80,5.0,7.0,90,0.00,,---,0.08,VWS V14.01,2013-11-09 18:06:00,
2013-11-09 13:11:00,78.1,75.6,30.00,ENE,59,3.0,8.0,92,0.00,,---,0.08,VWS V14.01,2013-11-09 18:11:00,
2013-11-09 13:16:00,77.7,75.5,30.00,NE,54,3.0,8.0,93,0.00,,---,0.08,VWS V14.01,2013-11-09 18:16:00,
2013-11-09 13:21:00,77.4,75.2,30.00,NE,54,1.0,8.0,93,0.01,,---,0.09,VWS V14.01,2013-11-09 18:21:00,
2013-11-09 13:26:00,77.0,75.1,30.00,ENE,60,3.0,8.0,94,0.02,,---,0.10,VWS V14.01,2013-11-09 18:26:00,
2013-11-09 13:31:00,76.7,75.5,30.00,ENE,58,2.0,8.0,96,0.02,,---,0.10,VWS V14.01,2013-11-09 18:31:00,
2013-11-09 13:36:00,76.5,75.6,30.00,NE,44,5.0,12.0,97,0.02,,---,0.10,VWS V14.01,2013-11-09 18:36:00,
2013-11-09 13:41:00,76.1,75.2,30.00,NE,39,9.0,12.0,97,0.02,,---,0.10,VWS V14.01,2013-11-09 18:41:00,
2013-11-09 13:46:00,76.0,75.1,30.00,NE,34,5.0,12.0,97,0.02,,---,0.10,VWS V14.01,2013-11-09 18:46:00,
2013-11-09 13:51:00,75.8,74.9,29.99,ENE,59,5.0,14.0,97,0.02,,---,0.10,VWS V14.01,2013-11-09 18:51:00,
2013-11-09 13:57:00,75.8,74.9,29.99,ENE,61,5.0,14.0,97,0.02,,---,0.10,VWS V14.01,2013-11-09 18:57:00,
2013-11-09 14:02:00,76.1,75.2,29.99,East,90,6.0,14.0,97,0.02,,---,0.10,VWS V14.01,2013-11-09 19:02:00,
2013-11-09 14:07:00,76.8,76.2,29.99,ENE,63,5.0,5.0,98,0.02,,---,0.10,VWS V14.01,2013-11-09 19:07:00,
2013-11-09 14:12:00,77.4,76.5,29.99,ENE,70,4.0,11.0,97,0.02,,---,0.10,VWS V14.01,2013-11-09 19:12:00,
2013-11-09 14:17:00,77.9,76.4,29.99,ENE,59,11.0,12.0,95,0.02,,---,0.10,VWS V14.01,2013-11-09 19:17:00,
2013-11-09 14:22:00,78.1,75.6,29.99,ENE,62,4.0,12.0,92,0.02,,---,0.10,VWS V14.01,2013-11-09 19:22:00,
2013-11-09 14:27:00,78.5,75.3,29.99,ENE,67,6.0,12.0,90,0.02,,---,0.10,VWS V14.01,2013-11-09 19:27:00,
2013-11-09 14:32:00,79.0,75.5,29.99,NE,46,9.0,12.0,89,0.02,,---,0.10,VWS V14.01,2013-11-09 19:32:00,
2013-11-09 14:37:00,79.2,74.7,29.99,ENE,60,6.0,13.0,86,0.00,,---,0.10,VWS V14.01,2013-11-09 19:37:00,
2013-11-09 14:42:00,79.4,75.2,29.99,NE,42,10.0,13.0,87,0.00,,---,0.10,VWS V14.01,2013-11-09 19:42:00,
2013-11-09 14:47:00,79.2,75.7,29.99,ENE,59,9.0,16.0,89,0.00,,---,0.10,VWS V14.01,2013-11-09 19:47:00,
2013-11-09 14:52:00,78.5,75.3,30.00,NE,51,4.0,16.0,90,0.01,,---,0.11,VWS V14.01,2013-11-09 19:52:00,
2013-11-09 14:57:00,77.7,74.9,30.00,ENE,57,3.0,16.0,91,0.01,,---,0.11,VWS V14.01,2013-11-09 19:57:00,
2013-11-09 15:02:00,77.2,75.0,30.00,ENE,67,5.0,16.0,93,0.01,,---,0.11,VWS V14.01,2013-11-09 20:02:00,
2013-11-09 15:07:00,76.7,74.8,30.00,NE,36,3.0,10.0,94,0.01,,---,0.11,VWS V14.01,2013-11-09 20:07:00,
2013-11-09 15:12:00,76.3,74.4,30.00,ENE,72,3.0,10.0,94,0.01,,---,0.11,VWS V14.01,2013-11-09 20:12:00,
2013-11-09 15:17:00,76.3,75.1,30.00,NE,44,3.0,10.0,96,0.01,,---,0.11,VWS V14.01,2013-11-09 20:17:00,
2013-11-09 15:23:00,76.7,75.8,30.00,East,80,10.0,10.0,97,0.01,,---,0.11,VWS V14.01,2013-11-09 20:23:00,
2013-11-09 15:28:00,76.5,75.3,30.00,NE,46,9.0,11.0,96,0.01,,---,0.11,VWS V14.01,2013-11-09 20:28:00,
2013-11-09 15:33:00,76.5,75.0,30.00,ENE,61,1.0,11.0,95,0.01,,---,0.11,VWS V14.01,2013-11-09 20:33:00,
2013-11-09 15:38:00,76.7,75.5,29.99,NE,52,6.0,6.0,96,0.01,,---,0.11,VWS V14.01,2013-11-09 20:38:00,
2013-11-09 15:43:00,76.7,75.2,29.99,NE,51,6.0,12.0,95,0.01,,---,0.11,VWS V14.01,2013-11-09 20:43:00,
2013-11-09 15:48:00,76.8,74.9,29.99,NNW,335,6.0,12.0,94,0.01,,---,0.11,VWS V14.01,2013-11-09 20:48:00,
2013-11-09 15:53:00,77.4,75.9,29.99,NE,52,0.0,12.0,95,0.01,,---,0.11,VWS V14.01,2013-11-09 20:53:00,
2013-11-09 15:58:00,77.4,75.2,29.99,ENE,60,3.0,12.0,93,0.01,,---,0.11,VWS V14.01,2013-11-09 20:58:00,
2013-11-09 16:03:00,77.6,75.1,29.99,NE,46,1.0,12.0,92,0.01,,---,0.11,VWS V14.01,2013-11-09 21:03:00,
2013-11-09 16:08:00,77.6,74.4,29.99,NE,55,7.0,7.0,90,0.00,,---,0.11,VWS V14.01,2013-11-09 21:08:00,
2013-11-09 16:13:00,77.7,74.2,29.99,NE,51,4.0,8.0,89,0.00,,---,0.11,VWS V14.01,2013-11-09 21:13:00,
2013-11-09 16:18:00,77.7,73.5,29.99,ENE,62,3.0,11.0,87,0.00,,---,0.11,VWS V14.01,2013-11-09 21:18:00,
2013-11-09 16:23:00,78.1,73.9,29.99,ENE,69,3.0,11.0,87,0.00,,---,0.11,VWS V14.01,2013-11-09 21:23:00,
2013-11-09 16:28:00,78.3,73.8,29.99,NE,46,9.0,11.0,86,0.00,,---,0.11,VWS V14.01,2013-11-09 21:28:00,
2013-11-09 16:34:00,78.3,73.4,29.99,ENE,59,5.0,11.0,85,0.00,,---,0.11,VWS V14.01,2013-11-09 21:34:00,
2013-11-09 16:39:00,78.3,73.4,29.99,ENE,76,1.0,7.0,85,0.00,,---,0.11,VWS V14.01,2013-11-09 21:39:00,
2013-11-09 16:44:00,78.3,73.4,29.99,ENE,59,4.0,11.0,85,0.00,,---,0.11,VWS V14.01,2013-11-09 21:44:00,
2013-11-09 16:49:00,78.3,73.1,30.00,NE,55,6.0,11.0,84,0.00,,---,0.11,VWS V14.01,2013-11-09 21:49:00,
2013-11-09 16:54:00,78.3,73.1,30.00,ENE,59,2.0,11.0,84,0.00,,---,0.11,VWS V14.01,2013-11-09 21:54:00,
2013-11-09 16:59:00,78.1,73.2,30.00,NE,51,6.0,11.0,85,0.00,,---,0.11,VWS V14.01,2013-11-09 21:59:00,
2013-11-09 17:04:00,78.1,73.2,30.00,ENE,58,7.0,11.0,85,0.00,,---,0.11,VWS V14.01,2013-11-09 22:04:00,
2013-11-09 17:09:00,77.9,72.7,30.00,ENE,62,5.0,12.0,84,0.00,,---,0.11,VWS V14.01,2013-11-09 22:09:00,
2013-11-09 17:14:00,77.9,72.7,30.00,ENE,78,4.0,12.0,84,0.00,,---,0.11,VWS V14.01,2013-11-09 22:14:00,
2013-11-09 17:19:00,77.7,72.5,30.00,NE,41,4.0,12.0,84,0.00,,---,0.11,VWS V14.01,2013-11-09 22:19:00,
2013-11-09 17:24:00,77.7,72.8,30.00,NE,47,7.0,12.0,85,0.00,,---,0.11,VWS V14.01,2013-11-09 22:24:00,
2013-11-09 17:29:00,77.6,72.7,30.00,NE,55,3.0,12.0,85,0.00,,---,0.11,VWS V14.01,2013-11-09 22:29:00,
2013-11-09 17:34:00,77.6,72.7,30.00,NE,38,12.0,12.0,85,0.00,,---,0.11,VWS V14.01,2013-11-09 22:34:00,
2013-11-09 17:39:00,77.6,72.7,30.00,ENE,58,5.0,7.0,85,0.00,,---,0.11,VWS V14.01,2013-11-09 22:39:00,
2013-11-09 17:45:00,77.6,72.7,30.00,NE,51,2.0,9.0,85,0.00,,---,0.11,VWS V14.01,2013-11-09 22:45:00,
2013-11-09 17:50:00,77.4,72.5,30.00,NE,37,4.0,13.0,85,0.00,,---,0.11,VWS V14.01,2013-11-09 22:50:00,
2013-11-09 17:55:00,77.4,72.5,30.00,NE,44,6.0,13.0,85,0.00,,---,0.11,VWS V14.01,2013-11-09 22:55:00,
2013-11-09 18:00:00,77.4,72.5,30.00,ENE,62,5.0,13.0,85,0.00,,---,0.11,VWS V14.01,2013-11-09 23:00:00,
2013-11-09 18:05:00,77.4,72.5,30.00,NE,56,4.0,13.0,85,0.00,,---,0.11,VWS V14.01,2013-11-09 23:05:00,
2013-11-09 18:10:00,77.4,72.5,30.00,NE,47,1.0,10.0,85,0.00,,---,0.11,VWS V14.01,2013-11-09 23:10:00,
2013-11-09 18:15:00,77.4,72.5,30.00,ENE,75,4.0,10.0,85,0.00,,---,0.11,VWS V14.01,2013-11-09 23:15:00,
2013-11-09 18:20:00,77.4,72.9,30.01,East,89,9.0,10.0,86,0.00,,---,0.11,VWS V14.01,2013-11-09 23:20:00,
2013-11-09 18:25:00,77.2,72.7,30.01,ENE,61,3.0,10.0,86,0.00,,---,0.11,VWS V14.01,2013-11-09 23:25:00,
2013-11-09 18:30:00,77.0,72.5,30.01,ENE,66,5.0,10.0,86,0.00,,---,0.11,VWS V14.01,2013-11-09 23:30:00,
2013-11-09 18:35:00,77.0,72.5,30.02,ENE,60,3.0,3.0,86,0.00,,---,0.11,VWS V14.01,2013-11-09 23:35:00,
2013-11-09 18:40:00,77.0,72.5,30.02,NE,42,10.0,10.0,86,0.00,,---,0.11,VWS V14.01,2013-11-09 23:40:00,
2013-11-09 18:45:00,77.0,72.5,30.02,NE,54,5.0,13.0,86,0.00,,---,0.11,VWS V14.01,2013-11-09 23:45:00,
2013-11-09 18:50:00,77.0,72.5,30.02,NE,53,0.0,13.0,86,0.00,,---,0.11,VWS V14.01,2013-11-09 23:50:00,
2013-11-09 18:56:00,77.0,72.5,30.02,ENE,61,3.0,13.0,86,0.00,,---,0.11,VWS V14.01,2013-11-09 23:56:00,
2013-11-09 19:01:00,77.0,72.5,30.02,NE,36,4.0,13.0,86,0.00,,---,0.11,VWS V14.01,2013-11-10 00:01:00,
2013-11-09 19:06:00,77.0,72.8,30.02,NE,50,4.0,4.0,87,0.00,,---,0.11,VWS V14.01,2013-11-10 00:06:00,
2013-11-09 19:11:00,77.0,72.5,30.02,ENE,67,2.0,8.0,86,0.00,,---,0.11,VWS V14.01,2013-11-10 00:11:00,
2013-11-09 19:16:00,77.0,72.5,30.02,NE,50,4.0,12.0,86,0.00,,---,0.11,VWS V14.01,2013-11-10 00:16:00,
2013-11-09 19:21:00,77.0,72.5,30.02,ENE,65,3.0,13.0,86,0.00,,---,0.11,VWS V14.01,2013-11-10 00:21:00,
2013-11-09 19:26:00,77.0,72.5,30.02,ENE,69,7.0,13.0,86,0.00,,---,0.11,VWS V14.01,2013-11-10 00:26:00,
2013-11-09 19:31:00,77.0,72.2,30.02,ENE,59,3.0,13.0,85,0.00,,---,0.11,VWS V14.01,2013-11-10 00:31:00,
2013-11-09 19:36:00,77.0,72.2,30.03,ENE,57,9.0,9.0,85,0.00,,---,0.11,VWS V14.01,2013-11-10 00:36:00,
2013-11-09 19:42:00,77.0,72.2,30.03,NE,51,5.0,9.0,85,0.00,,---,0.11,VWS V14.01,2013-11-10 00:42:00,
2013-11-09 19:47:00,77.2,72.3,30.03,ENE,70,6.0,10.0,85,0.00,,---,0.11,VWS V14.01,2013-11-10 00:47:00,
2013-11-09 19:52:00,77.2,72.3,30.03,ENE,67,9.0,12.0,85,0.00,,---,0.11,VWS V14.01,2013-11-10 00:52:00,
2013-11-09 19:57:00,77.0,72.5,30.03,East,90,5.0,14.0,86,0.00,,---,0.11,VWS V14.01,2013-11-10 00:57:00,
2013-11-09 20:02:00,76.8,73.0,30.03,NE,51,6.0,14.0,88,0.00,,---,0.11,VWS V14.01,2013-11-10 01:02:00,
2013-11-09 20:07:00,76.7,73.2,30.03,ENE,59,6.0,6.0,89,0.00,,---,0.11,VWS V14.01,2013-11-10 01:07:00,
2013-11-09 20:12:00,76.1,73.3,30.03,NE,50,4.0,10.0,91,0.00,,---,0.11,VWS V14.01,2013-11-10 01:12:00,
2013-11-09 20:17:00,75.8,73.3,30.03,NE,51,5.0,10.0,92,0.00,,---,0.11,VWS V14.01,2013-11-10 01:17:00,
2013-11-09 20:22:00,75.4,73.2,30.03,East,84,10.0,10.0,93,0.00,,---,0.11,VWS V14.01,2013-11-10 01:22:00,
2013-11-09 20:28:00,75.3,73.5,30.03,NE,53,5.0,10.0,94,0.00,,---,0.11,VWS V14.01,2013-11-10 01:28:00,
2013-11-09 20:33:00,75.1,73.6,30.03,ENE,73,4.0,10.0,95,0.00,,---,0.11,VWS V14.01,2013-11-10 01:33:00,
2013-11-09 20:38:00,74.9,73.7,30.03,ENE,58,3.0,7.0,96,0.00,,---,0.11,VWS V14.01,2013-11-10 01:38:00,
2013-11-09 20:43:00,74.7,73.5,30.03,ENE,57,1.0,7.0,96,0.00,,---,0.11,VWS V14.01,2013-11-10 01:43:00,
2013-11-09 20:48:00,74.6,73.7,30.03,ENE,57,6.0,7.0,97,0.00,,---,0.11,VWS V14.01,2013-11-10 01:48:00,
2013-11-09 20:53:00,74.6,73.7,30.03,ENE,57,4.0,7.0,97,0.00,,---,0.11,VWS V14.01,2013-11-10 01:53:00,
2013-11-09 20:58:00,74.6,73.7,30.03,ENE,57,3.0,7.0,97,0.00,,---,0.11,VWS V14.01,2013-11-10 01:58:00,
2013-11-09 21:03:00,74.6,73.7,30.03,ENE,58,4.0,7.0,97,0.00,,---,0.11,VWS V14.01,2013-11-10 02:03:00,
2013-11-09 21:08:00,74.7,73.8,30.03,ENE,58,6.0,6.0,97,0.00,,---,0.11,VWS V14.01,2013-11-10 02:08:00,
2013-11-09 21:13:00,74.7,73.8,30.03,NE,53,3.0,6.0,97,0.00,,---,0.11,VWS V14.01,2013-11-10 02:13:00,
2013-11-09 21:18:00,74.9,73.7,30.03,NE,55,0.0,6.0,96,0.00,,---,0.11,VWS V14.01,2013-11-10 02:18:00,
2013-11-09 21:23:00,75.1,73.9,30.03,ENE,57,5.0,6.0,96,0.00,,---,0.11,VWS V14.01,2013-11-10 02:23:00,
2013-11-09 21:29:00,75.3,73.8,30.03,NE,51,1.0,6.0,95,0.00,,---,0.11,VWS V14.01,2013-11-10 02:29:00,
2013-11-09 21:34:00,75.4,73.6,30.03,NNE,30,6.0,7.0,94,0.00,,---,0.11,VWS V14.01,2013-11-10 02:34:00,
2013-11-09 21:39:00,75.6,73.4,30.03,ENE,57,3.0,8.0,93,0.00,,---,0.11,VWS V14.01,2013-11-10 02:39:00,
2013-11-09 21:44:00,76.0,73.5,30.03,ENE,59,5.0,11.0,92,0.00,,---,0.11,VWS V14.01,2013-11-10 02:44:00,
2013-11-09 21:49:00,76.1,73.3,30.03,NE,55,5.0,11.0,91,0.00,,---,0.11,VWS V14.01,2013-11-10 02:49:00,
2013-11-09 21:54:00,76.1,73.3,30.03,NE,42,6.0,15.0,91,0.00,,---,0.11,VWS V14.01,2013-11-10 02:54:00,
2013-11-09 21:59:00,76.3,73.2,30.03,ENE,59,4.0,15.0,90,0.00,,---,0.11,VWS V14.01,2013-11-10 02:59:00,
2013-11-09 22:04:00,76.3,73.2,30.03,ENE,76,4.0,15.0,90,0.00,,---,0.11,VWS V14.01,2013-11-10 03:04:00,
2013-11-09 22:09:00,76.3,73.2,30.03,NNE,13,4.0,13.0,90,0.00,,---,0.11,VWS V14.01,2013-11-10 03:09:00,
2013-11-09 22:14:00,76.3,73.2,30.03,NE,55,5.0,13.0,90,0.00,,---,0.11,VWS V14.01,2013-11-10 03:14:00,
2013-11-09 22:19:00,76.3,73.2,30.03,ENE,57,4.0,13.0,90,0.00,,---,0.11,VWS V14.01,2013-11-10 03:19:00,
2013-11-09 22:24:00,76.5,73.3,30.03,NE,50,5.0,13.0,90,0.00,,---,0.11,VWS V14.01,2013-11-10 03:24:00,
2013-11-09 22:30:00,76.5,73.3,30.03,ENE,70,6.0,13.0,90,0.00,,---,0.11,VWS V14.01,2013-11-10 03:30:00,
2013-11-09 22:35:00,76.5,73.3,30.03,NE,55,4.0,13.0,90,0.00,,---,0.11,VWS V14.01,2013-11-10 03:35:00,
2013-11-09 22:40:00,76.5,73.3,30.03,East,84,9.0,9.0,90,0.00,,---,0.11,VWS V14.01,2013-11-10 03:40:00,
2013-11-09 22:45:00,76.7,73.2,30.03,ENE,63,1.0,9.0,89,0.00,,---,0.11,VWS V14.01,2013-11-10 03:45:00,
2013-11-09 22:50:00,76.7,73.2,30.03,NE,36,5.0,9.0,89,0.00,,---,0.11,VWS V14.01,2013-11-10 03:50:00,
2013-11-09 22:55:00,76.7,73.2,30.03,NE,47,5.0,9.0,89,0.00,,---,0.11,VWS V14.01,2013-11-10 03:55:00,
2013-11-09 23:00:00,76.8,73.3,30.03,NE,48,3.0,9.0,89,0.00,,---,0.11,VWS V14.01,2013-11-10 04:00:00,
2013-11-09 23:05:00,76.8,73.3,30.03,ENE,77,2.0,3.0,89,0.00,,---,0.11,VWS V14.01,2013-11-10 04:05:00,
2013-11-09 23:10:00,77.0,73.2,30.03,NE,55,4.0,8.0,88,0.00,,---,0.11,VWS V14.01,2013-11-10 04:10:00,
2013-11-09 23:16:00,77.0,73.2,30.03,NE,55,3.0,8.0,88,0.00,,---,0.11,VWS V14.01,2013-11-10 04:16:00,
2013-11-09 23:21:00,77.0,73.2,30.02,ENE,65,2.0,8.0,88,0.00,,---,0.11,VWS V14.01,2013-11-10 04:21:00,
2013-11-09 23:26:00,77.0,73.2,30.02,East,80,3.0,8.0,88,0.00,,---,0.11,VWS V14.01,2013-11-10 04:26:00,
2013-11-09 23:31:00,77.0,73.2,30.02,East,101,4.0,8.0,88,0.00,,---,0.11,VWS V14.01,2013-11-10 04:31:00,
2013-11-09 23:36:00,77.0,73.2,30.02,East,83,6.0,8.0,88,0.01,,---,0.12,VWS V14.01,2013-11-10 04:36:00,
2013-11-09 23:41:00,77.2,73.4,30.02,ENE,63,5.0,8.0,88,0.01,,---,0.12,VWS V14.01,2013-11-10 04:41:00,
2013-11-09 23:46:00,77.2,73.4,30.02,NE,53,3.0,9.0,88,0.01,,---,0.12,VWS V14.01,2013-11-10 04:46:00,
2013-11-09 23:51:00,77.2,73.4,30.02,NE,56,3.0,9.0,88,0.01,,---,0.12,VWS V14.01,2013-11-10 04:51:00,
2013-11-09 23:57:00,77.2,73.4,30.02,NE,53,2.0,9.0,88,0.01,,---,0.12,VWS V14.01,2013-11-10 04:57:00,